| time (UTC) | temp F | wind direction | speed knots | gust knots | rain 1hr in | rain 24hr in | rain mn in | humidity % | barometer mb |
| 20260508040012 | 44 | 288 | 0.0 | 0.0 | 0.00 | 0.11 | 0.11 | 57 | 1008.0 |
| 20260508035509 | 44 | 288 | 0.0 | 0.0 | 0.00 | 0.11 | 0.11 | 54 | 1008.2 |
| 20260508035006 | 45 | 285 | 0.0 | 0.0 | 0.00 | 0.11 | 0.11 | 53 | 1008.1 |
| 20260508034503 | 45 | 284 | 0.0 | 0.0 | 0.00 | 0.11 | 0.11 | 52 | 1008.2 |
| 20260508034000 | 45 | 297 | 0.0 | 0.0 | 0.00 | 0.11 | 0.11 | 53 | 1008.2 |
| 20260508033458 | 44 | 256 | 0.9 | 0.9 | 0.00 | 0.11 | 0.11 | 53 | 1008.1 |
| 20260508032955 | 43 | 272 | 0.0 | 0.9 | 0.00 | 0.11 | 0.11 | 58 | 1008.1 |
| 20260508032452 | 43 | 284 | 0.0 | 0.0 | 0.00 | 0.11 | 0.11 | 62 | 1008.1 |
| 20260508031949 | 43 | 277 | 0.0 | 0.0 | 0.00 | 0.11 | 0.11 | 64 | 1008.1 |
| 20260508031447 | 43 | 276 | 0.0 | 0.0 | 0.00 | 0.11 | 0.11 | 60 | 1008.0 |
| 20260508030942 | 44 | 277 | 0.0 | 0.0 | 0.00 | 0.11 | 0.11 | 59 | 1008.2 |
| 20260508030439 | 44 | 282 | 0.0 | 0.0 | 0.00 | 0.11 | 0.11 | 58 | 1008.3 |
| 20260508025937 | 44 | 310 | 0.0 | 0.0 | 0.00 | 0.11 | 0.11 | 57 | 1008.0 |
| 20260508025433 | 44 | 294 | 0.0 | 0.0 | 0.00 | 0.11 | 0.11 | 58 | 1007.9 |
| 20260508024930 | 44 | 273 | 0.0 | 0.0 | 0.00 | 0.11 | 0.11 | 57 | 1008.0 |
| 20260508024426 | 44 | 268 | 0.0 | 0.0 | 0.00 | 0.11 | 0.11 | 60 | 1008.1 |
| 20260508023923 | 44 | 258 | 0.0 | 0.0 | 0.00 | 0.11 | 0.11 | 57 | 1007.8 |
| 20260508023420 | 45 | 263 | 0.0 | 0.0 | 0.00 | 0.11 | 0.11 | 61 | 1007.7 |
| 20260508022917 | 45 | 266 | 0.0 | 0.0 | 0.00 | 0.11 | 0.11 | 56 | 1007.9 |
| 20260508022413 | 46 | 281 | 0.0 | 0.0 | 0.00 | 0.11 | 0.11 | 54 | 1008.3 |
| 20260508021910 | 46 | 291 | 0.0 | 0.9 | 0.00 | 0.11 | 0.11 | 51 | 1008.1 |
| 20260508021406 | 46 | 263 | 0.0 | 0.0 | 0.00 | 0.11 | 0.11 | 52 | 1008.2 |
| 20260508020902 | 46 | 265 | 0.0 | 0.0 | 0.00 | 0.11 | 0.11 | 51 | 1007.9 |
| 20260508020400 | 46 | 260 | 0.0 | 0.0 | 0.00 | 0.11 | 0.11 | 48 | 1007.9 |
| 20260508015857 | 47 | 281 | 0.0 | 0.0 | 0.00 | 0.11 | 0.11 | 48 | 1008.0 |
| 20260508015354 | 47 | 265 | 0.0 | 0.0 | 0.00 | 0.11 | 0.11 | 50 | 1007.9 |
| 20260508014850 | 47 | 263 | 0.0 | 0.0 | 0.00 | 0.11 | 0.11 | 49 | 1008.1 |
| 20260508014348 | 47 | 280 | 0.0 | 0.0 | 0.00 | 0.11 | 0.11 | 47 | 1008.1 |
| 20260508013843 | 47 | 337 | 0.0 | 0.0 | 0.00 | 0.11 | 0.11 | 50 | 1008.1 |
| 20260508013340 | 47 | 290 | 0.0 | 0.0 | 0.00 | 0.11 | 0.11 | 49 | 1008.0 |
| 20260508012837 | 48 | 275 | 0.0 | 0.0 | 0.00 | 0.11 | 0.11 | 47 | 1007.9 |
| 20260508012334 | 48 | 271 | 0.0 | 0.0 | 0.00 | 0.11 | 0.11 | 46 | 1007.9 |
| 20260508011832 | 48 | 298 | 0.0 | 0.9 | 0.00 | 0.11 | 0.11 | 46 | 1007.9 |
| 20260508011330 | 48 | 29 | 1.7 | 1.7 | 0.00 | 0.11 | 0.11 | 45 | 1008.0 |
| 20260508010827 | 49 | 300 | 0.0 | 0.0 | 0.00 | 0.11 | 0.11 | 45 | 1007.8 |
| 20260508010324 | 49 | 256 | 0.0 | 0.0 | 0.00 | 0.11 | 0.11 | 44 | 1007.7 |
| 20260508005821 | 50 | 274 | 0.0 | 0.0 | 0.00 | 0.11 | 0.11 | 44 | 1007.6 |
| 20260508005318 | 50 | 256 | 0.0 | 0.0 | 0.00 | 0.11 | 0.11 | 43 | 1007.7 |
| 20260508004815 | 50 | 269 | 0.0 | 0.9 | 0.00 | 0.11 | 0.11 | 42 | 1007.6 |
| 20260508004310 | 51 | 288 | 0.0 | 0.9 | 0.00 | 0.11 | 0.11 | 43 | 1007.4 |
| 20260508003807 | 51 | 293 | 0.0 | 2.6 | 0.00 | 0.11 | 0.11 | 42 | 1007.4 |
| 20260508003304 | 51 | 302 | 0.9 | 0.9 | 0.00 | 0.11 | 0.11 | 42 | 1007.3 |
| 20260508002801 | 51 | 242 | 0.9 | 1.7 | 0.00 | 0.11 | 0.11 | 42 | 1007.4 |
| 20260508002258 | 51 | 274 | 0.9 | 1.7 | 0.00 | 0.11 | 0.11 | 42 | 1007.3 |
| 20260508001754 | 51 | 283 | 0.0 | 0.9 | 0.00 | 0.11 | 0.11 | 43 | 1007.2 |
| 20260508001249 | 52 | 274 | 0.0 | 0.0 | 0.00 | 0.11 | 0.11 | 43 | 1007.1 |
| 20260508000746 | 52 | 280 | 0.0 | 2.6 | 0.00 | 0.11 | 0.11 | 42 | 1007.1 |
| 20260508000243 | 52 | 285 | 0.0 | 0.9 | 0.00 | 0.11 | 0.11 | 42 | 1007.0 |
| 20260507235739 | 53 | 286 | 0.0 | 1.7 | 0.00 | 0.11 | 0.11 | 41 | 1007.0 |
| 20260507235237 | 53 | 337 | 0.9 | 3.5 | 0.00 | 0.11 | 0.11 | 41 | 1007.0 |
| 20260507234734 | 53 | 272 | 0.9 | 1.7 | 0.00 | 0.11 | 0.11 | 40 | 1006.9 |
| 20260507234230 | 53 | 296 | 1.7 | 2.6 | 0.00 | 0.11 | 0.11 | 40 | 1006.8 |
| 20260507233727 | 54 | 327 | 0.0 | 5.2 | 0.00 | 0.11 | 0.11 | 40 | 1006.7 |
| 20260507233225 | 54 | 354 | 3.5 | 5.2 | 0.00 | 0.11 | 0.11 | 40 | 1006.7 |
| 20260507232722 | 54 | 264 | 0.9 | 2.6 | 0.00 | 0.11 | 0.11 | 41 | 1006.5 |
| 20260507232219 | 54 | 276 | 0.9 | 1.7 | 0.00 | 0.11 | 0.11 | 40 | 1006.3 |
| 20260507231715 | 55 | 288 | 0.9 | 1.7 | 0.00 | 0.11 | 0.11 | 39 | 1006.1 |
| 20260507231213 | 55 | 302 | 0.9 | 3.5 | 0.00 | 0.11 | 0.11 | 38 | 1006.2 |
| 20260507230709 | 55 | 296 | 0.9 | 5.2 | 0.00 | 0.11 | 0.11 | 38 | 1006.0 |
| 20260507230207 | 56 | 284 | 0.0 | 2.6 | 0.00 | 0.11 | 0.11 | 39 | 1005.8 |
| 20260507225706 | 56 | 320 | 5.2 | 9.6 | 0.00 | 0.11 | 0.11 | 38 | 1005.8 |
| 20260507225203 | 57 | 316 | 1.7 | 7.0 | 0.00 | 0.11 | 0.11 | 37 | 1005.7 |
| 20260507224658 | 57 | 306 | 0.9 | 7.0 | 0.00 | 0.11 | 0.11 | 38 | 1005.6 |
| 20260507224155 | 57 | 276 | 0.0 | 2.6 | 0.00 | 0.11 | 0.11 | 38 | 1005.4 |
| 20260507223651 | 57 | 20 | 2.6 | 5.2 | 0.00 | 0.11 | 0.11 | 37 | 1005.5 |
| 20260507223148 | 58 | 294 | 1.7 | 2.6 | 0.00 | 0.11 | 0.11 | 38 | 1005.5 |
| 20260507222645 | 58 | 326 | 0.9 | 5.2 | 0.00 | 0.11 | 0.11 | 38 | 1005.6 |
| 20260507222141 | 58 | 285 | 0.9 | 5.2 | 0.00 | 0.11 | 0.11 | 38 | 1005.3 |
| 20260507221638 | 58 | 255 | 2.6 | 5.2 | 0.00 | 0.11 | 0.11 | 37 | 1005.2 |
| 20260507221134 | 59 | 262 | 1.7 | 7.0 | 0.00 | 0.11 | 0.11 | 38 | 1005.4 |
| 20260507220632 | 59 | 279 | 2.6 | 7.0 | 0.00 | 0.11 | 0.11 | 36 | 1005.2 |
| 20260507220130 | 59 | 295 | 1.7 | 7.8 | 0.00 | 0.11 | 0.11 | 37 | 1004.9 |
| 20260507215625 | 60 | 289 | 1.7 | 2.6 | 0.00 | 0.11 | 0.11 | 37 | 1005.0 |
| 20260507215123 | 60 | 329 | 0.9 | 7.0 | 0.00 | 0.11 | 0.11 | 36 | 1004.7 |
| 20260507214620 | 61 | 254 | 2.6 | 6.1 | 0.00 | 0.11 | 0.11 | 34 | 1005.0 |
| 20260507214116 | 61 | 234 | 0.0 | 1.7 | 0.00 | 0.11 | 0.11 | 35 | 1004.8 |
| 20260507213612 | 61 | 348 | 3.5 | 3.5 | 0.00 | 0.11 | 0.11 | 32 | 1004.7 |
| 20260507213110 | 62 | 285 | 2.6 | 5.2 | 0.00 | 0.11 | 0.11 | 32 | 1004.7 |
| 20260507212606 | 62 | 292 | 1.7 | 7.8 | 0.00 | 0.11 | 0.11 | 31 | 1004.8 |
| 20260507212102 | 62 | 258 | 0.9 | 7.0 | 0.00 | 0.11 | 0.11 | 31 | 1004.6 |
| 20260507211559 | 62 | 276 | 1.7 | 2.6 | 0.00 | 0.11 | 0.11 | 32 | 1004.6 |
| 20260507211055 | 63 | 207 | 5.2 | 7.0 | 0.00 | 0.11 | 0.11 | 30 | 1004.4 |
| 20260507210553 | 64 | 330 | 1.7 | 1.7 | 0.00 | 0.11 | 0.11 | 32 | 1004.2 |
| 20260507210049 | 64 | 289 | 1.7 | 3.5 | 0.00 | 0.11 | 0.11 | 32 | 1004.3 |
| 20260507205546 | 65 | 269 | 0.9 | 2.6 | 0.00 | 0.11 | 0.11 | 29 | 1004.2 |
| 20260507205042 | 66 | 233 | 1.7 | 2.6 | 0.00 | 0.11 | 0.11 | 31 | 1004.0 |
| 20260507204539 | 65 | 267 | 0.0 | 3.5 | 0.00 | 0.11 | 0.11 | 30 | 1004.0 |
| 20260507204036 | 65 | 208 | 1.7 | 3.5 | 0.00 | 0.11 | 0.11 | 32 | 1003.9 |
| 20260507203534 | 64 | 187 | 3.5 | 5.2 | 0.00 | 0.11 | 0.11 | 33 | 1003.9 |
| 20260507203031 | 63 | 205 | 1.7 | 5.2 | 0.00 | 0.11 | 0.11 | 34 | 1004.0 |
| 20260507202527 | 63 | 209 | 2.6 | 5.2 | 0.00 | 0.11 | 0.11 | 34 | 1004.0 |
| 20260507202023 | 63 | 43 | 1.7 | 5.2 | 0.00 | 0.11 | 0.11 | 36 | 1003.9 |
| 20260507201519 | 63 | 313 | 0.9 | 3.5 | 0.00 | 0.11 | 0.11 | 35 | 1004.0 |
| 20260507201015 | 63 | 215 | 4.3 | 6.1 | 0.00 | 0.11 | 0.11 | 35 | 1004.1 |
| 20260507200511 | 63 | 306 | 0.0 | 7.0 | 0.00 | 0.11 | 0.11 | 36 | 1004.1 |
| 20260507200007 | 63 | 285 | 3.5 | 5.2 | 0.00 | 0.11 | 0.11 | 37 | 1004.1 |
| 20260507195504 | 63 | 250 | 0.9 | 2.6 | 0.00 | 0.11 | 0.11 | 36 | 1004.2 |
| 20260507195002 | 62 | 274 | 1.7 | 5.2 | 0.00 | 0.11 | 0.11 | 35 | 1003.9 |
| 20260507194458 | 62 | 309 | 0.9 | 2.6 | 0.00 | 0.11 | 0.11 | 38 | 1004.1 |
| 20260507193954 | 61 | 296 | 1.7 | 3.5 | 0.00 | 0.11 | 0.11 | 39 | 1004.1 |
| 20260507193452 | 61 | 212 | 1.7 | 3.5 | 0.00 | 0.11 | 0.11 | 42 | 1004.2 |
| 20260507192948 | 61 | 246 | 0.9 | 1.7 | 0.00 | 0.11 | 0.11 | 45 | 1004.1 |
| 20260507192444 | 60 | 211 | 5.2 | 7.8 | 0.00 | 0.11 | 0.11 | 44 | 1004.0 |
| 20260507191942 | 61 | 262 | 0.0 | 5.2 | 0.00 | 0.11 | 0.11 | 45 | 1004.1 |
| 20260507191437 | 61 | 266 | 1.7 | 2.6 | 0.00 | 0.11 | 0.11 | 44 | 1004.1 |
| 20260507190934 | 62 | 293 | 0.9 | 7.8 | 0.00 | 0.11 | 0.11 | 44 | 1004.1 |
| 20260507190432 | 62 | 203 | 2.6 | 5.2 | 0.00 | 0.11 | 0.11 | 43 | 1004.1 |
| 20260507185931 | 62 | 219 | 0.0 | 3.5 | 0.00 | 0.11 | 0.11 | 44 | 1004.2 |
| 20260507185427 | 62 | 282 | 0.9 | 5.2 | 0.00 | 0.11 | 0.11 | 43 | 1004.3 |
| 20260507184924 | 62 | 285 | 0.9 | 1.7 | 0.00 | 0.11 | 0.11 | 44 | 1004.1 |
| 20260507184422 | 62 | 317 | 0.9 | 2.6 | 0.00 | 0.11 | 0.11 | 41 | 1004.0 |
| 20260507183919 | 63 | 273 | 0.9 | 2.6 | 0.00 | 0.11 | 0.11 | 41 | 1003.9 |
| 20260507183416 | 63 | 263 | 2.6 | 3.5 | 0.00 | 0.11 | 0.11 | 41 | 1004.1 |
| 20260507182914 | 63 | 288 | 1.7 | 3.5 | 0.00 | 0.11 | 0.11 | 42 | 1004.3 |
| 20260507182409 | 63 | 254 | 2.6 | 2.6 | 0.00 | 0.11 | 0.11 | 42 | 1004.1 |
| 20260507181906 | 62 | 317 | 2.6 | 3.5 | 0.00 | 0.11 | 0.11 | 43 | 1004.2 |
| 20260507181402 | 62 | 307 | 3.5 | 3.5 | 0.00 | 0.11 | 0.11 | 41 | 1004.2 |
| 20260507180859 | 62 | 266 | 0.0 | 0.9 | 0.00 | 0.11 | 0.11 | 42 | 1004.2 |
| 20260507180355 | 62 | 269 | 0.9 | 5.2 | 0.00 | 0.11 | 0.11 | 42 | 1004.3 |
| 20260507175851 | 63 | 218 | 2.6 | 2.6 | 0.00 | 0.11 | 0.11 | 42 | 1004.3 |
| 20260507175348 | 62 | 259 | 0.9 | 1.7 | 0.00 | 0.11 | 0.11 | 44 | 1004.4 |
| 20260507174846 | 61 | 268 | 1.7 | 6.1 | 0.00 | 0.11 | 0.11 | 44 | 1004.6 |
| 20260507174343 | 61 | 209 | 4.3 | 7.0 | 0.00 | 0.11 | 0.11 | 43 | 1004.6 |
| 20260507173841 | 61 | 219 | 0.9 | 7.0 | 0.00 | 0.11 | 0.11 | 44 | 1004.6 |
| 20260507173337 | 62 | 220 | 7.0 | 11.3 | 0.00 | 0.11 | 0.11 | 42 | 1004.4 |
| 20260507172833 | 62 | 300 | 0.9 | 6.1 | 0.00 | 0.11 | 0.11 | 45 | 1004.4 |
| 20260507172331 | 62 | 173 | 0.9 | 1.7 | 0.00 | 0.11 | 0.11 | 43 | 1004.7 |
| 20260507171826 | 63 | 283 | 0.0 | 1.7 | 0.00 | 0.11 | 0.11 | 46 | 1004.7 |
| 20260507171323 | 62 | 258 | 0.9 | 5.2 | 0.00 | 0.11 | 0.11 | 44 | 1004.5 |
| 20260507170820 | 62 | 235 | 1.7 | 2.6 | 0.00 | 0.11 | 0.11 | 46 | 1004.7 |
| 20260507170317 | 62 | 160 | 2.6 | 2.6 | 0.00 | 0.11 | 0.11 | 45 | 1004.8 |
| 20260507165813 | 61 | 283 | 0.9 | 3.5 | 0.00 | 0.11 | 0.11 | 46 | 1004.9 |
| 20260507165309 | 61 | 244 | 1.7 | 2.6 | 0.00 | 0.11 | 0.11 | 46 | 1004.9 |
| 20260507164805 | 61 | 316 | 1.7 | 1.7 | 0.00 | 0.11 | 0.11 | 46 | 1004.7 |
| 20260507164302 | 62 | 220 | 2.6 | 2.6 | 0.00 | 0.11 | 0.11 | 45 | 1005.0 |
| 20260507163759 | 61 | 253 | 1.7 | 2.6 | 0.00 | 0.11 | 0.11 | 48 | 1005.2 |
| 20260507163257 | 60 | 332 | 0.9 | 1.7 | 0.00 | 0.11 | 0.11 | 49 | 1005.2 |
| 20260507162753 | 60 | 226 | 2.6 | 5.2 | 0.00 | 0.11 | 0.11 | 49 | 1005.2 |
| 20260507162249 | 60 | 238 | 2.6 | 3.5 | 0.00 | 0.11 | 0.11 | 50 | 1005.2 |
| 20260507161746 | 60 | 264 | 0.9 | 1.7 | 0.00 | 0.11 | 0.11 | 52 | 1005.2 |
| 20260507161243 | 59 | 223 | 1.7 | 2.6 | 0.00 | 0.11 | 0.11 | 50 | 1005.4 |
| 20260507160738 | 60 | 226 | 3.5 | 5.2 | 0.00 | 0.11 | 0.11 | 49 | 1005.3 |
| 20260507160235 | 60 | 283 | 0.0 | 0.9 | 0.00 | 0.11 | 0.11 | 50 | 1005.4 |
| 20260507155731 | 60 | 324 | 0.0 | 3.5 | 0.00 | 0.11 | 0.11 | 53 | 1005.5 |
| 20260507155227 | 60 | 272 | 0.0 | 0.9 | 0.00 | 0.11 | 0.11 | 53 | 1005.4 |
| 20260507154724 | 60 | 243 | 0.0 | 0.9 | 0.00 | 0.11 | 0.11 | 50 | 1005.7 |
| 20260507154222 | 60 | 207 | 1.7 | 2.6 | 0.00 | 0.11 | 0.11 | 51 | 1005.7 |
| 20260507153718 | 60 | 251 | 0.0 | 3.5 | 0.00 | 0.11 | 0.11 | 49 | 1005.7 |
| 20260507153215 | 60 | 283 | 0.0 | 6.1 | 0.00 | 0.11 | 0.11 | 52 | 1005.8 |
| 20260507152711 | 59 | 23 | 0.9 | 5.2 | 0.00 | 0.11 | 0.11 | 51 | 1005.7 |
| 20260507152207 | 59 | 9 | 2.6 | 3.5 | 0.00 | 0.11 | 0.11 | 50 | 1005.9 |
| 20260507151703 | 60 | 234 | 0.9 | 0.9 | 0.00 | 0.11 | 0.11 | 53 | 1005.7 |
| 20260507151200 | 59 | 0 | 0.9 | 0.9 | 0.00 | 0.11 | 0.11 | 51 | 1005.8 |
| 20260507150657 | 59 | 326 | 1.7 | 2.6 | 0.00 | 0.11 | 0.11 | 51 | 1005.8 |
| 20260507150154 | 59 | 304 | 1.7 | 2.6 | 0.00 | 0.11 | 0.11 | 53 | 1006.1 |
| 20260507145649 | 59 | 264 | 0.0 | 3.5 | 0.00 | 0.11 | 0.11 | 52 | 1006.0 |
| 20260507145147 | 58 | 250 | 0.0 | 0.9 | 0.00 | 0.11 | 0.11 | 54 | 1006.0 |
| 20260507144643 | 58 | 351 | 3.5 | 3.5 | 0.00 | 0.11 | 0.11 | 56 | 1006.3 |
| 20260507144141 | 58 | 281 | 1.7 | 2.6 | 0.00 | 0.11 | 0.11 | 56 | 1006.2 |
| 20260507143638 | 58 | 238 | 1.7 | 1.7 | 0.00 | 0.11 | 0.11 | 56 | 1006.3 |
| 20260507143135 | 57 | 269 | 0.0 | 1.7 | 0.00 | 0.11 | 0.11 | 59 | 1006.3 |
| 20260507142630 | 58 | 269 | 0.0 | 7.8 | 0.00 | 0.11 | 0.11 | 57 | 1006.2 |
| 20260507142127 | 58 | 218 | 0.9 | 1.7 | 0.00 | 0.11 | 0.11 | 58 | 1006.4 |
| 20260507141623 | 57 | 297 | 0.9 | 1.7 | 0.00 | 0.11 | 0.11 | 60 | 1006.3 |
| 20260507141120 | 57 | 244 | 1.7 | 1.7 | 0.00 | 0.11 | 0.11 | 59 | 1006.2 |
| 20260507140617 | 56 | 56 | 0.9 | 1.7 | 0.00 | 0.11 | 0.11 | 61 | 1006.5 |
| 20260507140114 | 56 | 234 | 0.9 | 3.5 | 0.00 | 0.11 | 0.11 | 62 | 1006.7 |
| 20260507135611 | 56 | 273 | 0.0 | 1.7 | 0.00 | 0.11 | 0.11 | 64 | 1006.7 |
| 20260507135109 | 55 | 237 | 0.9 | 1.7 | 0.00 | 0.11 | 0.11 | 63 | 1006.6 |
| 20260507134605 | 56 | 308 | 1.7 | 2.6 | 0.00 | 0.11 | 0.11 | 62 | 1006.6 |
| 20260507134101 | 55 | 242 | 0.9 | 0.9 | 0.00 | 0.11 | 0.11 | 66 | 1006.5 |
| 20260507133557 | 54 | 141 | 1.7 | 1.7 | 0.00 | 0.11 | 0.11 | 64 | 1006.6 |
| 20260507133055 | 54 | 179 | 0.9 | 1.7 | 0.00 | 0.11 | 0.11 | 64 | 1006.5 |
| 20260507132552 | 54 | 250 | 0.0 | 0.9 | 0.00 | 0.11 | 0.11 | 65 | 1006.7 |
| 20260507132048 | 53 | 300 | 0.9 | 1.7 | 0.00 | 0.11 | 0.11 | 67 | 1006.7 |
| 20260507131545 | 54 | 231 | 4.3 | 5.2 | 0.00 | 0.11 | 0.11 | 66 | 1006.7 |
| 20260507131042 | 54 | 308 | 0.9 | 1.7 | 0.00 | 0.11 | 0.11 | 65 | 1006.7 |
| 20260507130539 | 54 | 29 | 0.9 | 2.6 | 0.00 | 0.11 | 0.11 | 66 | 1006.6 |
| 20260507130037 | 53 | 221 | 1.7 | 2.6 | 0.00 | 0.11 | 0.11 | 69 | 1006.8 |
| 20260507125535 | 53 | 253 | 0.9 | 1.7 | 0.00 | 0.11 | 0.11 | 67 | 1006.9 |
| 20260507125032 | 52 | 319 | 0.9 | 1.7 | 0.00 | 0.11 | 0.11 | 68 | 1007.0 |
| 20260507124529 | 52 | 310 | 0.9 | 2.6 | 0.00 | 0.11 | 0.11 | 70 | 1007.1 |
| 20260507124026 | 52 | 268 | 0.9 | 1.7 | 0.00 | 0.11 | 0.11 | 70 | 1006.8 |
| 20260507123525 | 52 | 223 | 1.7 | 2.6 | 0.00 | 0.11 | 0.11 | 71 | 1007.0 |
| 20260507123021 | 52 | 333 | 0.9 | 1.7 | 0.00 | 0.11 | 0.11 | 71 | 1006.8 |
| 20260507122516 | 52 | 257 | 1.7 | 2.6 | 0.00 | 0.11 | 0.11 | 71 | 1006.8 |
| 20260507122012 | 51 | 294 | 0.9 | 2.6 | 0.00 | 0.11 | 0.11 | 72 | 1006.7 |
| 20260507121508 | 51 | 342 | 0.9 | 6.1 | 0.00 | 0.11 | 0.11 | 73 | 1006.9 |
| 20260507121004 | 51 | 296 | 0.9 | 2.6 | 0.00 | 0.11 | 0.11 | 75 | 1007.0 |
| 20260507120500 | 51 | 270 | 0.9 | 2.6 | 0.00 | 0.11 | 0.11 | 76 | 1007.0 |
| 20260507115957 | 51 | 281 | 0.0 | 1.7 | 0.00 | 0.11 | 0.11 | 75 | 1007.3 |
| 20260507115454 | 51 | 269 | 0.9 | 0.9 | 0.00 | 0.11 | 0.11 | 78 | 1007.1 |
| 20260507114949 | 50 | 282 | 0.0 | 0.9 | 0.00 | 0.11 | 0.11 | 79 | 1007.4 |
| 20260507114445 | 50 | 291 | 0.9 | 1.7 | 0.00 | 0.11 | 0.11 | 80 | 1007.4 |
| 20260507113943 | 49 | 291 | 0.9 | 0.9 | 0.00 | 0.11 | 0.11 | 83 | 1007.2 |
| 20260507113440 | 49 | 238 | 0.0 | 0.9 | 0.00 | 0.11 | 0.11 | 84 | 1007.1 |
| 20260507112937 | 49 | 284 | 0.9 | 1.7 | 0.00 | 0.11 | 0.11 | 86 | 1007.2 |
| 20260507112435 | 49 | 278 | 0.0 | 1.7 | 0.00 | 0.11 | 0.11 | 89 | 1007.4 |
| 20260507111932 | 48 | 254 | 0.0 | 1.7 | 0.00 | 0.11 | 0.11 | 91 | 1007.4 |
| 20260507111429 | 47 | 296 | 0.0 | 0.0 | 0.00 | 0.11 | 0.11 | 93 | 1007.4 |
| 20260507110925 | 47 | 268 | 0.0 | 0.9 | 0.00 | 0.11 | 0.11 | 93 | 1007.2 |
| 20260507110421 | 47 | 259 | 0.0 | 0.0 | 0.00 | 0.11 | 0.11 | 94 | 1007.3 |
| 20260507105918 | 47 | 220 | 1.7 | 1.7 | 0.00 | 0.11 | 0.11 | 94 | 1007.2 |
| 20260507105415 | 48 | 268 | 0.0 | 0.0 | 0.00 | 0.11 | 0.11 | 95 | 1007.1 |
| 20260507104912 | 48 | 272 | 0.0 | 0.0 | 0.00 | 0.11 | 0.11 | 95 | 1007.1 |
| 20260507104408 | 48 | 272 | 0.0 | 0.0 | 0.00 | 0.11 | 0.11 | 95 | 1007.2 |
| 20260507103904 | 47 | 273 | 0.0 | 0.0 | 0.00 | 0.11 | 0.11 | 95 | 1007.1 |
| 20260507103401 | 47 | 261 | 0.0 | 0.0 | 0.00 | 0.11 | 0.11 | 95 | 1007.2 |
| 20260507102857 | 47 | 262 | 0.0 | 0.0 | 0.00 | 0.11 | 0.11 | 95 | 1007.5 |
| 20260507102354 | 46 | 264 | 0.0 | 0.0 | 0.00 | 0.11 | 0.11 | 95 | 1007.3 |
| 20260507101850 | 46 | 281 | 0.0 | 0.0 | 0.00 | 0.11 | 0.11 | 95 | 1006.9 |
| 20260507101350 | 46 | 281 | 0.0 | 0.0 | 0.00 | 0.11 | 0.11 | 95 | 1006.7 |
| 20260507100848 | 46 | 291 | 0.0 | 0.0 | 0.00 | 0.11 | 0.11 | 95 | 1006.8 |
| 20260507100346 | 46 | 281 | 0.0 | 0.0 | 0.00 | 0.11 | 0.11 | 95 | 1006.7 |
| 20260507095844 | 46 | 282 | 0.0 | 0.0 | 0.00 | 0.11 | 0.11 | 95 | 1006.5 |
| 20260507095340 | 46 | 282 | 0.0 | 0.0 | 0.00 | 0.11 | 0.11 | 95 | 1006.7 |
| 20260507094837 | 46 | 283 | 0.0 | 0.0 | 0.00 | 0.11 | 0.11 | 95 | 1006.7 |
| 20260507094333 | 46 | 291 | 0.0 | 0.0 | 0.00 | 0.11 | 0.11 | 95 | 1006.5 |
| 20260507093831 | 46 | 270 | 0.0 | 0.0 | 0.00 | 0.11 | 0.11 | 95 | 1006.9 |
| 20260507093329 | 46 | 270 | 0.0 | 0.0 | 0.00 | 0.11 | 0.11 | 95 | 1006.7 |
| 20260507092826 | 46 | 272 | 0.0 | 0.0 | 0.00 | 0.11 | 0.11 | 95 | 1006.6 |
| 20260507092323 | 46 | 273 | 0.0 | 0.0 | 0.00 | 0.11 | 0.11 | 95 | 1006.7 |
| 20260507091819 | 46 | 274 | 0.0 | 0.0 | 0.00 | 0.11 | 0.11 | 95 | 1006.5 |
| 20260507091316 | 46 | 265 | 0.0 | 0.0 | 0.00 | 0.11 | 0.11 | 95 | 1006.8 |
| 20260507090817 | 46 | 264 | 0.0 | 0.0 | 0.00 | 0.11 | 0.11 | 95 | 1007.1 |
| 20260507090314 | 46 | 266 | 0.0 | 0.0 | 0.00 | 0.11 | 0.11 | 95 | 1006.7 |
| 20260507085811 | 46 | 265 | 0.0 | 0.0 | 0.00 | 0.11 | 0.11 | 95 | 1007.0 |
| 20260507085308 | 46 | 248 | 0.0 | 0.0 | 0.00 | 0.11 | 0.11 | 95 | 1006.9 |
| 20260507084805 | 46 | 280 | 0.0 | 0.0 | 0.00 | 0.11 | 0.11 | 95 | 1006.5 |
| 20260507084301 | 46 | 269 | 0.0 | 0.0 | 0.00 | 0.11 | 0.11 | 95 | 1006.2 |
| 20260507083759 | 46 | 293 | 0.0 | 0.0 | 0.00 | 0.11 | 0.11 | 95 | 1006.3 |
| 20260507083255 | 46 | 293 | 0.0 | 0.9 | 0.00 | 0.11 | 0.11 | 95 | 1006.1 |
| 20260507082752 | 46 | 275 | 0.0 | 0.0 | 0.00 | 0.11 | 0.11 | 95 | 1006.4 |
| 20260507082247 | 47 | 290 | 0.0 | 0.0 | 0.00 | 0.11 | 0.11 | 95 | 1006.4 |
| 20260507081744 | 47 | 288 | 0.0 | 0.9 | 0.00 | 0.11 | 0.11 | 95 | 1006.5 |
| 20260507081240 | 47 | 310 | 0.0 | 0.0 | 0.00 | 0.11 | 0.11 | 95 | 1006.5 |
| 20260507080737 | 47 | 287 | 0.0 | 0.9 | 0.00 | 0.11 | 0.11 | 95 | 1006.4 |
| 20260507080233 | 48 | 294 | 0.0 | 0.0 | 0.00 | 0.11 | 0.11 | 95 | 1006.5 |
| 20260507075729 | 48 | 294 | 0.0 | 0.0 | 0.00 | 0.11 | 0.11 | 95 | 1006.3 |
| 20260507075225 | 48 | 300 | 0.0 | 0.0 | 0.00 | 0.11 | 0.11 | 95 | 1006.7 |
| 20260507074722 | 48 | 270 | 0.0 | 0.0 | 0.00 | 0.11 | 0.11 | 95 | 1006.9 |
| 20260507074220 | 48 | 270 | 0.0 | 0.0 | 0.00 | 0.11 | 0.11 | 95 | 1007.0 |
| 20260507073716 | 48 | 271 | 0.0 | 0.0 | 0.00 | 0.11 | 0.11 | 95 | 1006.6 |
| 20260507073213 | 48 | 294 | 0.0 | 0.0 | 0.00 | 0.11 | 0.11 | 95 | 1006.2 |
| 20260507072711 | 48 | 297 | 0.0 | 0.0 | 0.00 | 0.11 | 0.11 | 95 | 1006.4 |
| 20260507072207 | 48 | 270 | 0.0 | 0.0 | 0.00 | 0.11 | 0.11 | 95 | 1006.6 |
| 20260507071705 | 48 | 295 | 0.0 | 0.0 | 0.00 | 0.11 | 0.11 | 95 | 1006.2 |
| 20260507071201 | 48 | 295 | 0.0 | 0.0 | 0.00 | 0.11 | 0.11 | 95 | 1006.2 |
| 20260507070659 | 48 | 294 | 0.0 | 0.0 | 0.00 | 0.11 | 0.11 | 95 | 1006.1 |
| 20260507070155 | 48 | 294 | 0.0 | 0.0 | 0.00 | 0.11 | 0.11 | 95 | 1006.2 |
| 20260507065652 | 48 | 293 | 0.0 | 0.0 | 0.00 | 0.11 | 0.11 | 95 | 1006.0 |
| 20260507065149 | 48 | 293 | 0.0 | 0.0 | 0.00 | 0.11 | 0.11 | 95 | 1005.8 |
| 20260507064646 | 48 | 299 | 0.0 | 0.0 | 0.00 | 0.11 | 0.11 | 95 | 1005.7 |
| 20260507064144 | 48 | 290 | 0.0 | 0.0 | 0.00 | 0.11 | 0.11 | 95 | 1006.0 |
| 20260507063642 | 48 | 292 | 0.0 | 0.0 | 0.00 | 0.11 | 0.11 | 95 | 1005.7 |
| 20260507063139 | 48 | 292 | 0.0 | 0.0 | 0.00 | 0.11 | 0.11 | 95 | 1005.8 |
| 20260507062636 | 48 | 298 | 0.0 | 0.0 | 0.00 | 0.11 | 0.11 | 95 | 1005.9 |
| 20260507062133 | 48 | 297 | 0.0 | 0.9 | 0.00 | 0.11 | 0.11 | 95 | 1005.7 |
| 20260507061631 | 49 | 262 | 0.0 | 0.0 | 0.00 | 0.11 | 0.11 | 95 | 1005.9 |
| 20260507061129 | 49 | 289 | 0.0 | 0.0 | 0.00 | 0.11 | 0.11 | 95 | 1005.7 |
| 20260507060627 | 49 | 294 | 0.0 | 0.9 | 0.00 | 0.11 | 0.11 | 95 | 1005.6 |
| 20260507060122 | 49 | 289 | 0.0 | 0.0 | 0.07 | 0.11 | 0.11 | 95 | 1005.6 |
| 20260507055618 | 49 | 294 | 0.0 | 0.9 | 0.00 | 0.10 | 0.10 | 95 | 1005.4 |
| 20260507055114 | 49 | 298 | 0.0 | 0.0 | 0.00 | 0.10 | 0.10 | 95 | 1005.5 |
| 20260507054610 | 49 | 290 | 0.0 | 0.0 | 0.00 | 0.10 | 0.10 | 95 | 1005.8 |
| 20260507054108 | 49 | 290 | 0.0 | 0.9 | 0.00 | 0.10 | 0.10 | 95 | 1005.8 |
| 20260507053605 | 49 | 0 | 0.0 | 0.9 | 0.00 | 0.10 | 0.10 | 95 | 1005.9 |
| 20260507053104 | 49 | 271 | 0.0 | 0.9 | 0.05 | 0.10 | 0.10 | 95 | 1005.6 |
| 20260507052601 | 49 | 303 | 0.0 | 1.7 | 0.05 | 0.10 | 0.10 | 95 | 1005.7 |
| 20260507052058 | 49 | 307 | 0.0 | 0.0 | 0.00 | 0.09 | 0.09 | 95 | 1005.9 |
| 20260507051555 | 49 | 272 | 0.0 | 0.9 | 0.00 | 0.09 | 0.09 | 95 | 1006.1 |
| 20260507051052 | 49 | 279 | 0.0 | 0.9 | 0.07 | 0.09 | 0.09 | 95 | 1006.3 |
| 20260507050549 | 49 | 287 | 0.0 | 1.7 | 0.14 | 0.09 | 0.09 | 95 | 1005.8 |
| 20260507050044 | 50 | 327 | 0.9 | 1.7 | 0.12 | 0.08 | 0.08 | 95 | 1006.1 |
| 20260507045542 | 50 | 341 | 2.6 | 3.5 | 0.12 | 0.07 | 0.07 | 95 | 1006.0 |
| 20260507045039 | 50 | 294 | 0.9 | 3.5 | 0.07 | 0.06 | 0.06 | 95 | 1005.9 |
| 20260507044536 | 50 | 296 | 0.0 | 1.7 | 0.00 | 0.05 | 0.05 | 95 | 1005.9 |
| 20260507044033 | 50 | 289 | 1.7 | 2.6 | 0.00 | 0.05 | 0.05 | 95 | 1005.7 |
| 20260507043528 | 50 | 284 | 0.9 | 1.7 | 0.05 | 0.05 | 0.05 | 95 | 1005.9 |
| 20260507043026 | 50 | 287 | 0.0 | 1.7 | 0.05 | 0.05 | 0.05 | 95 | 1005.7 |
| 20260507042521 | 50 | 24 | 0.9 | 2.6 | 0.12 | 0.04 | 0.04 | 95 | 1005.7 |
| 20260507042018 | 51 | 356 | 0.0 | 2.6 | 0.19 | 0.04 | 0.04 | 95 | 1005.6 |
| 20260507041515 | 51 | 15 | 2.6 | 2.6 | 0.12 | 0.02 | 0.02 | 95 | 1005.8 |
| 20260507041012 | 51 | 293 | 1.7 | 1.7 | 0.05 | 0.01 | 0.01 | 95 | 1005.9 |
| 20260507040508 | 51 | 289 | 0.9 | 1.7 | 0.00 | 0.00 | 0.00 | 95 | 1005.6 |